Regional Weather Roundup
Issued by NWS

Home | Current Version | Previous Version | Text Only | Print | Product List | Glossary Off
Versions: 1 2 3 4 5 6 7 8 9 10 11 12 13 14 15 16 17 18 19 20 21 22 23 24 25 26 27 28 29 30 31 32 33 34 35 36 37 38 39 40 41 42 43 44 45 46 47 48 49 50

000
ASUS43 KDTX 041710
RWRMI
MICHIGAN HOURLY REGIONAL WEATHER ROUNDUP
NATIONAL WEATHER SERVICE DETROIT/PONTIAC MI
100 PM EDT TUE AUG 04 2015

NOTE: "FAIR" INDICATES FEW OR NO CLOUDS BELOW 12,000 FEET WITH NO
SIGNIFICANT WEATHER AND/OR OBSTRUCTION TO VISIBILITY.

MIZ047>049-052>055-059>063-066>070-074>076-081>083-041800-
SOUTHEAST LOWER MICHIGAN

CITY           SKY/WX    TMP DP  RH WIND       PRES   REMARKS
ADRIAN         MOSUNNY   77  55  46 NW10G23   29.96S
ALMA           CLOUDY    75  58  55 W12G17    29.93S
ANN ARBOR      MOSUNNY   76  54  46 W17       29.94S
BAD AXE        CLOUDY    73  56  55 W18G26    29.90F
CARO           PTSUNNY   77  60  55 W9        29.90S
DETROIT CITY   SUNNY     78  52  40 W15G25    29.92S
DETROIT        MOSUNNY   78  51  38 W18       29.93F
FLINT          MOSUNNY   78  56  46 W14       29.92F
GROSSE ILE     SUNNY     79  57  47 W9        29.91F
HILLSDALE      MOSUNNY   76  51  41 W12G20    29.97S
HOWELL         CLOUDY    75  54  48 W10       29.94S

CITY           SKY/WX    TMP DP  RH WIND       PRES   REMARKS
JACKSON        MOSUNNY   75  56  51 W12G23    29.95F
LAMBERTVILLE   SUNNY     80  58  47 W10       29.95F
LANSING        CLOUDY    75  55  49 W10       29.95S
LAPEER         FAIR      77  55  45 W12G17    29.91F
MASON          MOSUNNY   75  55  48 SW7G17    29.95S
MONROE         PTSUNNY   79  59  50 W14G22    29.92F
MT. CLEMENS    MOSUNNY   79  55  43 W12G21    29.89F
PONTIAC        PTSUNNY   75  55  49 W13       29.92S
PORT HURON     PTSUNNY   75  57  53 W5        29.90F
TRI CITIES     PTSUNNY   76  57  51 W14       29.91F
MIDLAND        FAIR      77  55  45 W12G22    29.89F
TROY           MOSUNNY   80  50  34 W13G21    29.94S
SAGINAW HB     MOSUNNY   77  59  53 SW12G21   29.90S
$$
MIZ043>046-050>051-056>058-064>065-071>073-077>080-041800-
SOUTHWEST LOWER MICHIGAN

CITY           SKY/WX    TMP DP  RH WIND       PRES   REMARKS
BATTLE CREEK     N/A    N/A N/A N/A MISG      29.97S
BENTON HARBOR  SUNNY     77  60  55 W10       29.98R
BIG RAPIDS     CLOUDY    70  58  64 NW6       29.93R
COLDWATER      MOSUNNY   77  51  40 W17       29.97R
FREMONT        PTSUNNY   74  51  43 W9G20     29.94S
HOLLAND        SUNNY     77  58  51 W14       29.97S
GRAND RAPIDS   PTSUNNY   78  54  43 W18G25    29.95S
IONIA          PTSUNNY   77  55  45 W10       29.93S
KALAMAZOO      MOSUNNY   77  54  44 W10       29.96F
LUDINGTON      MOSUNNY   72  60  65 NW9       29.94S
MARSHALL       MOSUNNY   78  55  43 W7        29.96R
MOUNT PLEASANT CLOUDY    75  55  48 W9        29.91R
MUSKEGON       PTSUNNY   76  57  51 SW12G17   29.95S
SOUTH HAVEN    SUNNY     75  58  54 W8        29.97S
$$
MIZ016>042-041800-
NORTHERN LOWER MICHIGAN

CITY           SKY/WX    TMP DP  RH WIND       PRES   REMARKS
ALPENA         PTSUNNY   71  56  58 NW22      29.88R
BEAVER ISLAND  PTSUNNY   66  52  60 NW9G16    29.93R
BELLAIRE       PTSUNNY   69  54  59 W5        29.92S
CADILLAC       PTSUNNY   72  54  53 W16G22    29.92F
CHARLEVOIX     MOSUNNY   67  53  61 NW9       29.95R
FRANKFORT      PTSUNNY   71  60  66 W8        29.93S
GAYLORD        PTSUNNY   66  54  65 NW13G21   29.91S
GRAYLING       LGT RAIN  64  58  80 W7        29.93R
HARBOR SPRINGS MOSUNNY   69  53  55 NW10      29.91S
HOUGHTON LAKE  CLOUDY    66  58  75 W13       29.92S
MANISTEE       SUNNY     68  55  64 W10       29.94S
OSCODA         RAIN      69  62  76 W7        29.87F
PELLSTON       PTSUNNY   66  51  58 NW13      29.91S
ROGERS CITY    MOSUNNY   68  55  64 NW10      29.89S
TRAVERSE CITY  CLOUDY    70  57  63 NW8       29.90S
$$
MIZ007>008-015-041800-
EASTERN UPPER MICHIGAN

CITY           SKY/WX    TMP DP  RH WIND       PRES   REMARKS
KINROSS        CLOUDY    63  52  67 NW13      29.89S
MACKINAC ISLAN LGT RAIN  63  51  64 W10       29.90S
NEWBERRY       CLOUDY    65  49  56 W9        29.91S
S. S. MARIE    PTSUNNY   63  51  65 W13G18    29.89R
MUNISING         N/A     67  53  61 N3        29.93S
$$
MIZ004>006-011>014-085-041800-
CENTRAL UPPER MICHIGAN

CITY           SKY/WX    TMP DP  RH WIND       PRES   REMARKS
MANISTIQUE     CLOUDY    68  52  56 NW8       29.91F
ESCANABA       PTSUNNY   63  57  82 CALM      29.92S
MENOMINEE      PTSUNNY   70  54  56 W7        29.92S
SAWYER-GWINN   PTSUNNY   57  54  88 E7        29.94R
$$
MIZ001>003-009>011-084-041800-
WESTERN UPPER MICHIGAN

CITY           SKY/WX    TMP DP  RH WIND       PRES   REMARKS
IRON MOUNTAIN  PTSUNNY   69  55  60 NW10      29.93S
HOUGHTON       CLOUDY    62  50  64 NW14      29.95R
COPPER HARBOR    N/A     61  52  72 N9        29.94S
IRONWOOD       CLOUDY    63  54  72 NW8       29.97R
$$

ABBREVIATIONS USED IN REMARKS
   TC - TEMPERATURE IN CELSIUS
  WCI - WIND CHILL INDEX
   HX - HEAT INDEX
  VSB - VISIBILITY




USA.gov is the U.S. government's official web portal to all federal, state and local government web resources and services.